Lid_Strength_Index
12 11 13 14 15 15 15 16 16 16 16 16 16 17 17 17 17 17 17 17 18 17
12 12 13 14 15 15 15 15 16 16 16 16 17 17 17 17 17 17 17 18 17 18
14 14 15 15 16 16 16 16 16 17 17 17 17 17 17 17 17 17 17 16 17 18
15 15 16 16 16 16 16 16 16 16 17 17 17 17 18 18 17 18 17 17 17 17
16 16 16 17 17 16 17 16 17 17 17 17 17 18 18 18 17 17 18 17 18 17
16 16 17 17 16 16 16 17 17 17 18 18 18 18 18 17 17 17 17 18 18 17
17 17 17 16 16 16 17 17 18 18 18 18 18 17 17 16 17 17 17 17 17 16
17 17 16 16 17 17 17 18 18 18 18 18 17 16 15 15 17 17 18 17 16 16
16 16 16 17 18 18 18 18 18 18 18 18 16 14 12 13 16 17 17 17 16 16
16 16 17 18 18 18 19 19 19 18 18 19 19 14 13 12 15 16 16 16 16 15
16 17 18 18 19 19 19 19 19 19 19 20 18 13 13 12 15 16 16 16 16 16
17 18 19 19 19 19 19 19 20 19 20 20 19 14 12 12 15 16 16 15 15 15
18 19 19 19 19 19 20 19 19 19 19 17 19 14 12 13 15 16 16 15 14 12
19 19 19 19 20 20 20 20 20 19 19 19 18 17 13 12 14 15 14 15 14 13